Peoria, IL

5:15 AM CST on December 17, 2017 (GMT -0600)
Greater Peoria Regional

Weather History for KPIA - October, 2011

Change the Weather History Date:

Monday, October 31, 2011

  Actual Average Record
Temperature  
Mean Temperature 43 °F 49 °F  
Max Temperature 54 °F 59 °F 85 °F (1950)
Min Temperature 31 °F 39 °F 14 °F (1925)
Degree Days  
Heating Degree Days 22 16  
Month to date heating degree days 312 358  
Since 1 July heating degree days 446 446  
Cooling Degree Days 0 0  
Month to date cooling degree days 16 15  
Year to date cooling degree days 1265 1039  
Moisture  
Dew Point 33 °F    
Average Humidity 73    
Maximum Humidity 100    
Minimum Humidity 45    
Precipitation  
Precipitation 0.00 in 0.10 in 1.69 in (1994)
Month to date precipitation 0.67 2.84  
Year to date precipitation 32.29 30.94  
Snow  
Snow 0.00 in 0.00 in 0.00 in ()
Month to date snowfall 0.0 T  
Since 1 July snowfall 0.0 T  
Since 1 September snowfall 0.0 T  
Snow Depth 0.00 in    
Sea Level Pressure  
Sea Level Pressure 30.07 in    
Wind  
Wind Speed 3 mph (West)    
Max Wind Speed 13 mph    
Max Gust Speed 18 mph    
Visibility 8 miles    
Events      
T = Trace of Precipitation, MM = Missing Value Source: NWS Daily Summary

Daily Weather History Graph

Daily Weather History Graph

Search for Another Location

Airport or City:

Trip Planner

Search our weather history database for the weather conditions in past years. The results will help you decide how hot, cold, wet, or windy it might be!

Date:

Astronomy

Oct. 31, 2011 Rise Set
Actual Time 7:27 AM CDT 5:56 PM CDT
Civil Twilight 6:59 AM CDT 6:24 PM CDT
Nautical Twilight 6:26 AM CDT 6:57 PM CDT
Astronomical Twilight 5:55 AM CDT 7:28 PM CDT
Moon 12:35 PM CDT (10/31) 10:32 PM CDT (10/31)
Length of Visible Light 11h 25m
Length of Day
10h 29m
Waxing Crescent, 30% of the Moon is Illuminated
Oct 31
Waxing Crescent
Nov 2
First Quarter
Nov 10
Full
Nov 18
Last Quarter
Nov 25
New

Hourly Weather History & Observations

Time (CDT) Temp. Windchill Dew Point Humidity Pressure Visibility Wind Dir Wind Speed Gust Speed Precip Events Conditions
12:54 AM 37.9 °F - 37.0 °F 97% 30.01 in 4.0 mi Calm Calm - N/A   Clear
1:54 AM 36.0 °F - 35.1 °F 97% 30.01 in 4.0 mi Calm Calm - N/A   Clear
2:06 AM 37.4 °F - 35.6 °F 93% 30.01 in 1.2 mi Calm Calm - N/A   Clear
2:12 AM 37.4 °F - 35.6 °F 93% 30.01 in 5.0 mi Calm Calm - N/A   Partly Cloudy
2:54 AM 36.0 °F - 36.0 °F 100% 30.02 in 3.0 mi Calm Calm - N/A   Overcast
3:00 AM 35.6 °F - 35.6 °F 100% 30.01 in 5.0 mi Calm Calm - N/A   Overcast
3:54 AM 36.0 °F 33.3 °F 35.1 °F 97% 30.01 in 10.0 mi SW 3.5 mph - N/A   Mostly Cloudy
4:03 AM 35.6 °F - 33.8 °F 93% 30.00 in 1.8 mi Calm Calm - N/A   Mostly Cloudy
4:05 AM 35.6 °F - 33.8 °F 93% 30.00 in 10.0 mi Calm Calm - N/A   Mostly Cloudy
4:54 AM 34.0 °F - 32.0 °F 92% 30.01 in 6.0 mi Calm Calm - N/A   Clear
5:54 AM 33.8 °F 30.8 °F 32.0 °F 93% 30.02 in 10.0 mi NNW 3.5 mph - N/A   Clear
6:54 AM 34.0 °F - 30.9 °F 89% 30.04 in 10.0 mi Calm Calm - N/A   Clear
7:54 AM 30.9 °F - 30.0 °F 96% 30.06 in 7.0 mi Calm Calm - N/A   Clear
8:54 AM 37.9 °F 35.5 °F 33.1 °F 83% 30.09 in 10.0 mi WNW 3.5 mph - N/A   Clear
9:54 AM 43.0 °F 39.5 °F 35.1 °F 74% 30.10 in 10.0 mi WNW 5.8 mph - N/A   Clear
10:54 AM 46.9 °F - 36.0 °F 66% 30.11 in 10.0 mi NW 5.8 mph - N/A   Clear
11:54 AM 50.0 °F - 35.1 °F 57% 30.11 in 10.0 mi West 6.9 mph - N/A   Clear
12:54 PM 51.1 °F - 32.0 °F 48% 30.10 in 10.0 mi WNW 9.2 mph - N/A   Partly Cloudy
1:54 PM 53.1 °F - 32.0 °F 45% 30.09 in 10.0 mi West 10.4 mph 16.1 mph N/A   Partly Cloudy
2:54 PM 54.0 °F - 33.1 °F 45% 30.09 in 10.0 mi WNW 9.2 mph - N/A   Clear
3:54 PM 54.0 °F - 33.1 °F 45% 30.09 in 10.0 mi WSW 8.1 mph - N/A   Clear
4:54 PM 53.1 °F - 32.0 °F 45% 30.10 in 10.0 mi West 6.9 mph - N/A   Clear
5:54 PM 50.0 °F - 30.9 °F 48% 30.12 in 10.0 mi Calm Calm - N/A   Clear
6:54 PM 46.9 °F - 32.0 °F 56% 30.14 in 10.0 mi Calm Calm - N/A   Clear
7:54 PM 42.1 °F - 32.0 °F 67% 30.14 in 10.0 mi Calm Calm - N/A   Clear
8:54 PM 41.0 °F - 32.0 °F 70% 30.15 in 10.0 mi Calm Calm - N/A   Clear
9:54 PM 39.9 °F - 32.0 °F 73% 30.16 in 10.0 mi Calm Calm - N/A   Clear
10:54 PM 37.0 °F - 32.0 °F 82% 30.15 in 7.0 mi Calm Calm - N/A   Clear
11:54 PM 39.9 °F 37.8 °F 30.9 °F 70% 30.14 in 10.0 mi SSE 3.5 mph - N/A   Clear